• In Russia
  • List of Countries
  • For 7 days
  • Water Temperature
  • Satellite Maps
  • Weather Map
  • Weather Widgets
  • user-avatar
    Login

    Hourly Weather Fier

    Today, 27 April, Thursday

    Time Temperature Precipitation Wind Pressure Humidity
    00:00 +13°C° 0 mm 3 mps 762 mmHg 73%
    01:00 +13°C° 0 mm 3 mps 762 mmHg 74%
    02:00 +13°C° 0 mm 3 mps 761 mmHg 73%
    03:00 +12°C° 0 mm 3 mps 761 mmHg 72%
    04:00 +12°C° 0 mm 3 mps 761 mmHg 71%
    05:00 +14°C° 0 mm 3 mps 761 mmHg 65%
    06:00 +17°C° 0 mm 3 mps 761 mmHg 59%
    07:00 +19°C° 0 mm 3 mps 761 mmHg 53%
    08:00 +21°C° 0 mm 3 mps 761 mmHg 47%
    09:00 +24°C° 0 mm 3 mps 761 mmHg 41%
    10:00 +26°C° 0 mm 3 mps 761 mmHg 35%
    11:00 +26°C° 0 mm 4 mps 761 mmHg 35%
    12:00 +26°C° 0 mm 4 mps 761 mmHg 34%
    13:00 +27°C° 0 mm 5 mps 761 mmHg 34%
    14:00 +26°C° 0 mm 5 mps 761 mmHg 36%
    15:00 +26°C° 0 mm 5 mps 761 mmHg 38%
    16:00 +25°C° 0 mm 5 mps 761 mmHg 40%
    17:00 +22°C° 0 mm 4 mps 761 mmHg 49%
    18:00 +19°C° 0 mm 4 mps 761 mmHg 57%
    19:00 +17°C° 0 mm 3 mps 761 mmHg 66%
    20:00 +16°C° 0 mm 3 mps 761 mmHg 65%
    21:00 +16°C° 0 mm 3 mps 761 mmHg 65%
    22:00 +16°C° 0 mm 3 mps 761 mmHg 64%
    23:00 +15°C° 0 mm 4 mps 761 mmHg 64%

    Tomorrow, 28 April, Friday

    Time Temperature Precipitation Wind Pressure Humidity
    00:00 +15°C° 0 mm 4 mps 761 mmHg 63%
    01:00 +15°C° 0 mm 4 mps 761 mmHg 62%
    02:00 +14°C° 0 mm 4 mps 761 mmHg 62%
    03:00 +14°C° 0 mm 4 mps 760 mmHg 61%
    04:00 +14°C° 0 mm 4 mps 760 mmHg 60%
    05:00 +17°C° 0 mm 4 mps 760 mmHg 55%
    06:00 +18°C° 0 mm 4 mps 760 mmHg 49%
    07:00 +20°C° 0 mm 4 mps 760 mmHg 44%
    08:00 +22°C° 0 mm 4 mps 760 mmHg 39%
    09:00 +25°C° 0 mm 5 mps 760 mmHg 33%
    10:00 +27°C° 0 mm 5 mps 760 mmHg 27%
    11:00 +27°C° 0 mm 6 mps 760 mmHg 28%
    12:00 +28°C° 0 mm 6 mps 759 mmHg 28%
    13:00 +28°C° 0 mm 6 mps 759 mmHg 29%
    14:00 +27°C° 0 mm 6 mps 759 mmHg 32%
    15:00 +26°C° 0 mm 6 mps 759 mmHg 35%
    16:00 +26°C° 0 mm 6 mps 759 mmHg 38%
    17:00 +23°C° 0 mm 6 mps 759 mmHg 43%
    18:00 +21°C° 0 mm 5 mps 759 mmHg 48%
    19:00 +17°C° 0 mm 5 mps 759 mmHg 54%
    20:00 +17°C° 0 mm 5 mps 759 mmHg 54%
    21:00 +17°C° 0 mm 5 mps 759 mmHg 54%
    22:00 +17°C° 0 mm 5 mps 759 mmHg 54%
    23:00 +16°C° 0 mm 5 mps 759 mmHg 53%

    Day after tomorrow, 29 April, Saturday

    Time Temperature Precipitation Wind Pressure Humidity
    00:00 +16°C° 0 mm 5 mps 758 mmHg 53%
    01:00 +16°C° 0 mm 5 mps 758 mmHg 52%
    02:00 +16°C° 0 mm 5 mps 758 mmHg 51%
    03:00 +16°C° 0 mm 5 mps 758 mmHg 50%
    04:00 +16°C° 0 mm 5 mps 758 mmHg 48%
    05:00 +19°C° 0 mm 4 mps 758 mmHg 47%
    06:00 +20°C° 0 mm 4 mps 757 mmHg 45%
    07:00 +21°C° 0 mm 4 mps 757 mmHg 43%
    08:00 +22°C° 0 mm 5 mps 757 mmHg 39%
    09:00 +25°C° 0 mm 5 mps 757 mmHg 34%
    10:00 +26°C° 0 mm 5 mps 757 mmHg 30%
    11:00 +26°C° 0 mm 5 mps 757 mmHg 33%
    12:00 +26°C° 0 mm 6 mps 757 mmHg 36%
    13:00 +26°C° 0 mm 6 mps 757 mmHg 39%
    14:00 +23°C° 0.1 mm 6 mps 757 mmHg 48%
    15:00 +21°C° 0.1 mm 6 mps 757 mmHg 57%
    16:00 +20°C° 0.1 mm 5 mps 757 mmHg 66%
    17:00 +17°C° 0.2 mm 5 mps 757 mmHg 74%
    18:00 +17°C° 0.2 mm 4 mps 757 mmHg 82%
    19:00 +14°C° 0.2 mm 4 mps 757 mmHg 90%
    20:00 +14°C° 0 mm 4 mps 758 mmHg 91%
    21:00 +14°C° 0 mm 4 mps 758 mmHg 91%
    22:00 +13°C° 0 mm 4 mps 758 mmHg 91%
    23:00 +13°C° 0 mm 4 mps 758 mmHg 92%

    30 April, Sunday

    Time Temperature Precipitation Wind Pressure Humidity
    00:00 +12°C° 0 mm 4 mps 758 mmHg 93%
    01:00 +12°C° 0 mm 4 mps 758 mmHg 94%
    02:00 +12°C° 0 mm 4 mps 758 mmHg 94%
    03:00 +12°C° 0 mm 4 mps 758 mmHg 93%
    04:00 +11°C° 0 mm 4 mps 758 mmHg 93%
    05:00 +13°C° 0 mm 4 mps 758 mmHg 87%
    06:00 +14°C° 0 mm 4 mps 758 mmHg 80%
    07:00 +15°C° 0 mm 4 mps 758 mmHg 74%
    08:00 +18°C° 0 mm 4 mps 758 mmHg 64%
    09:00 +20°C° 0 mm 4 mps 758 mmHg 55%
    10:00 +22°C° 0 mm 4 mps 758 mmHg 46%
    11:00 +23°C° 0 mm 5 mps 757 mmHg 45%
    12:00 +23°C° 0 mm 5 mps 757 mmHg 43%
    13:00 +24°C° 0 mm 6 mps 756 mmHg 42%
    14:00 +23°C° 0 mm 6 mps 756 mmHg 45%
    15:00 +23°C° 0 mm 6 mps 756 mmHg 49%
    16:00 +22°C° 0 mm 6 mps 756 mmHg 52%
    17:00 +20°C° 0 mm 5 mps 756 mmHg 61%
    18:00 +17°C° 0 mm 5 mps 756 mmHg 70%
    19:00 +15°C° 0 mm 4 mps 757 mmHg 78%
    20:00 +14°C° 0 mm 4 mps 757 mmHg 80%
    21:00 +14°C° 0 mm 3 mps 757 mmHg 82%
    22:00 +13°C° 0 mm 3 mps 757 mmHg 85%
    23:00 +13°C° 0 mm 3 mps 757 mmHg 85%

    1 May, Monday

    Time Temperature Precipitation Wind Pressure Humidity
    00:00 +13°C° 0 mm 3 mps 757 mmHg 85%
    01:00 +13°C° 0 mm 3 mps 757 mmHg 86%
    02:00 +13°C° 0 mm 3 mps 757 mmHg 84%
    03:00 +13°C° 0 mm 3 mps 757 mmHg 83%
    04:00 +14°C° 0 mm 2 mps 757 mmHg 82%
    05:00 +16°C° 0 mm 2 mps 757 mmHg 75%
    06:00 +17°C° 0 mm 2 mps 757 mmHg 68%
    07:00 +19°C° 0 mm 2 mps 757 mmHg 61%
    08:00 +21°C° 0 mm 2 mps 758 mmHg 56%
    09:00 +24°C° 0 mm 2 mps 758 mmHg 50%
    10:00 +26°C° 0 mm 2 mps 758 mmHg 45%
    11:00 +26°C° 0 mm 3 mps 757 mmHg 44%
    12:00 +27°C° 0 mm 4 mps 757 mmHg 44%
    13:00 +27°C° 0 mm 4 mps 757 mmHg 43%
    14:00 +26°C° 0 mm 4 mps 757 mmHg 46%
    15:00 +25°C° 0 mm 4 mps 757 mmHg 48%
    16:00 +25°C° 0 mm 3 mps 757 mmHg 51%
    17:00 +21°C° 0 mm 3 mps 757 mmHg 60%
    18:00 +19°C° 0 mm 2 mps 757 mmHg 69%
    19:00 +17°C° 0 mm 2 mps 757 mmHg 78%
    20:00 +16°C° 0 mm 1 mps 758 mmHg 80%
    21:00 +16°C° 0 mm 1 mps 758 mmHg 82%
    22:00 +15°C° 0 mm 1 mps 758 mmHg 84%
    23:00 +15°C° 0 mm 1 mps 758 mmHg 85%

    2 May, Tuesday

    Time Temperature Precipitation Wind Pressure Humidity
    00:00 +15°C° 0 mm 1 mps 758 mmHg 86%
    01:00 +15°C° 0 mm 1 mps 758 mmHg 87%
    02:00 +14°C° 0 mm 1 mps 758 mmHg 86%
    03:00 +13°C° 0 mm 0 mps 758 mmHg 86%
    04:00 +13°C° 0 mm 0 mps 758 mmHg 85%
    05:00 +15°C° 0 mm 0 mps 758 mmHg 78%
    06:00 +17°C° 0 mm 0 mps 758 mmHg 71%
    07:00 +20°C° 0 mm 0 mps 758 mmHg 64%
    08:00 +23°C° 0 mm 1 mps 758 mmHg 57%
    09:00 +24°C° 0 mm 1 mps 758 mmHg 51%
    10:00 +26°C° 0 mm 2 mps 758 mmHg 44%
    11:00 +26°C° 0 mm 2 mps 758 mmHg 43%
    12:00 +26°C° 0 mm 3 mps 758 mmHg 43%
    13:00 +26°C° 0 mm 3 mps 757 mmHg 42%
    14:00 +26°C° 0 mm 3 mps 757 mmHg 43%
    15:00 +25°C° 0 mm 3 mps 757 mmHg 45%
    16:00 +25°C° 0 mm 3 mps 757 mmHg 46%
    17:00 +21°C° 0 mm 2 mps 757 mmHg 55%
    18:00 +19°C° 0 mm 2 mps 757 mmHg 65%
    19:00 +16°C° 0 mm 1 mps 758 mmHg 74%
    20:00 +16°C° 0 mm 1 mps 758 mmHg 75%
    21:00 +15°C° 0 mm 1 mps 758 mmHg 76%
    22:00 +15°C° 0 mm 1 mps 758 mmHg 77%
    23:00 +14°C° 0 mm 1 mps 758 mmHg 79%
    Show more